Content
SEND FEEDBACK

Daily
Averages
Monthly
Summary
United States of America

BEN WHEELER, TEXAS


Home > North America > United States > Texas
Elevation: 150 meters     Latitude: 32 23N     Longitude: 095 38W

WEATHER
 
SELECT A DAY
Number of Records: 193,419;   Date Range: 1/1/95 - 12/17/14
 
SHARE

PRINT THIS DATA

[ ← Previous Day ]
WEATHER ALMANAC - 23 JANUARY, 2013
[ Next Day → ]
[ °F ]   °C
Weather ElementAverageHighLow
Temperature15.2 °C22.2 °C (2:53 pm)8.9 °C (4:53 am)
Dewpoint9.4 °C11.7 °C (10:53 am)7.2 °C (3:53 am)
Humidity70.7 %93 % (7:53 am)44 % (1:53 pm)
Barometer890.6 hPa1026.8 hPa (9:53 am) (7:00 pm)
Wind Speed15.6 km/h22.2 km/h (10:53 am)
Wind Gust31.5 km/h (2:53 pm)
Weather ElementAverage
Visibility15.9 km
Wind DirectionSSW (190 °)

Weather ElementTotal
Precipitation---
Heating Degree Days2.8 (Base 18.3)
Growing Degree Days5.6 (Base 10)
Averaged from 23 records on 23 January, 2013
WEATHER CONDITIONS BREAKOUT
WIND DIRECTION BREAKOUT
WEATHER BY HOUR - 23 JANUARY, 2013
[ °F ]   °C
Local TimeTemperatureDewpointHumidityBarometerVisibilityWind DirectionWind SpeedGust SpeedPrecipitationEventsConditions
1:53 AM10.6 °C7.8 °C83 %1024.4 hPa16.1 kmSouth (190°)14.8 km/hClear
2:53 AM10 °C7.8 °C86 %1024.7 hPa16.1 kmSouth (170°)14.8 km/hClear
3:53 AM9.4 °C7.2 °C86 %1024.7 hPa16.1 kmSouth (180°)13 km/hClear
4:53 AM8.9 °C7.2 °C89 %1025.1 hPa16.1 kmSouth (180°)11.1 km/hClear
5:53 AM8.9 °C7.2 °C89 %1025.7 hPa16.1 kmSouth (170°)11.1 km/hMostly Cloudy
6:53 AM8.9 °C7.2 °C89 %1025.4 hPa14.5 kmSouth (180°)13 km/hPartly Cloudy
7:53 AM8.9 °C7.8 °C93 %1026.1 hPa12.9 kmSouth (170°)13 km/hClear
8:53 AM11.7 °C9.4 °C86 %1026.1 hPa16.1 kmSouth (190°)16.7 km/hClear
9:53 AM15 °C11.1 °C78 %1026.8 hPa16.1 kmSSW (210°)20.4 km/hClear
10:53 AM17.2 °C11.7 °C70 %1026.8 hPa16.1 kmSSW (210°)22.2 km/hClear
11:53 AM20 °C11.1 °C56 %1026.1 hPa16.1 kmSW (220°)20.4 km/hClear
12:53 PM20.6 °C10 °C51 %1024.7 hPa16.1 kmSSW (210°)18.5 km/hClear
1:53 PM21.7 °C8.9 °C44 %1023.7 hPa16.1 kmSSW (200°)14.8 km/hClear
2:53 PM22.2 °C9.4 °C44 %1023.4 hPa16.1 kmSouth (190°)20.4 km/h31.5 km/hClear
3:53 PM22.2 °C10 °C46 %1022.7 hPa16.1 kmSSW (200°)22.2 km/hClear
4:53 PM21.7 °C10 °C47 %1022.4 hPa16.1 kmSSW (200°)18.5 km/hClear
5:53 PM18.9 °C10 °C56 %1022.4 hPa16.1 kmSouth (190°)13 km/hClear
6:53 PM17.2 °C10 °C63 %1022.4 hPa16.1 kmSouth (190°)16.7 km/hClear
7:53 PM15.6 °C10 °C69 %1022.4 hPa16.1 kmSouth (180°)13 km/hClear
8:53 PM15.6 °C10 °C69 %1022.4 hPa16.1 kmSouth (190°)13 km/hClear
9:53 PM15 °C10.6 °C75 %16.1 kmSouth (190°)14.8 km/hClear
10:53 PM15 °C10.6 °C75 %16.1 kmSouth (190°)14.8 km/hClear
11:53 PM13.9 °C10.6 °C81 %16.1 kmSouth (170°)9.3 km/hClear
Hourly data recorded from KTYR, located 0 kilometers away from Ben Wheeler, Texas







STORIES FROM OUR PARTNERS